| time (UTC) | temp F | wind direction | speed MPH | gust MPH | rain 1hr in | rain 24hr in | rain mn in | humidity % | barometer mb |
| 20260831224516 | 74 | 67 | 0.0 | 0.0 | 0.00 | 0.59 | 0.03 | 85 | 1040.7 |
| 20260831223614 | 74 | 67 | 0.0 | 0.0 | 0.00 | 0.59 | 0.03 | 85 | 1040.7 |
| 20260831222614 | 74 | 67 | 0.0 | 0.0 | 0.00 | 0.59 | 0.03 | 83 | 1040.7 |
| 20260831221714 | 74 | 67 | 0.0 | 0.0 | 0.00 | 0.59 | 0.03 | 84 | 1040.7 |
| 20260831220616 | 75 | 67 | 0.0 | 0.0 | 0.00 | 0.59 | 0.03 | 84 | 1040.8 |
| 20260831215712 | 75 | 67 | 0.0 | 0.0 | 0.00 | 0.59 | 0.03 | 83 | 1041.0 |
| 20260831214714 | 75 | 67 | 0.0 | 0.0 | 0.00 | 0.59 | 0.03 | 84 | 1040.8 |
| 20260831214613 | 75 | 67 | 0.0 | 0.0 | 0.00 | 0.59 | 0.03 | 84 | 1040.8 |
| 20260831213614 | 75 | 67 | 0.0 | 0.0 | 0.00 | 0.59 | 0.03 | 84 | 1040.9 |
| 20260831212614 | 75 | 67 | 0.0 | 0.0 | 0.00 | 0.59 | 0.03 | 83 | 1040.9 |
| 20260831212515 | 75 | 67 | 0.0 | 0.0 | 0.00 | 0.59 | 0.03 | 83 | 1040.9 |
| 20260831211513 | 75 | 67 | 0.0 | 0.0 | 0.00 | 0.59 | 0.03 | 83 | 1041.1 |
| 20260831210515 | 75 | 67 | 0.0 | 0.0 | 0.00 | 0.59 | 0.03 | 83 | 1041.0 |
| 20260831204513 | 75 | 67 | 0.0 | 0.0 | 0.00 | 0.59 | 0.03 | 82 | 1041.2 |
| 20260831204415 | 75 | 67 | 0.0 | 0.0 | 0.00 | 0.59 | 0.03 | 82 | 1041.2 |
| 20260831203413 | 76 | 67 | 0.0 | 0.0 | 0.00 | 0.59 | 0.03 | 80 | 1041.1 |
| 20260831202413 | 77 | 67 | 0.0 | 0.0 | 0.00 | 0.59 | 0.03 | 78 | 1041.3 |
| 20260831201417 | 77 | 67 | 0.0 | 0.0 | 0.00 | 0.59 | 0.03 | 77 | 1041.4 |
| 20260831200313 | 77 | 67 | 0.0 | 0.0 | 0.00 | 0.59 | 0.03 | 76 | 1041.4 |
| 20260831195313 | 77 | 67 | 0.0 | 0.0 | 0.00 | 0.59 | 0.03 | 77 | 1041.4 |
| 20260831194315 | 77 | 67 | 0.0 | 0.0 | 0.00 | 0.59 | 0.03 | 76 | 1041.6 |
| 20260831193413 | 78 | 67 | 0.0 | 0.0 | 0.00 | 0.59 | 0.03 | 76 | 1041.7 |
| 20260831192414 | 78 | 67 | 0.0 | 0.0 | 0.00 | 0.59 | 0.03 | 75 | 1041.6 |
| 20260831192314 | 78 | 67 | 0.0 | 0.0 | 0.00 | 0.59 | 0.03 | 74 | 1041.6 |
| 20260831191314 | 78 | 67 | 0.0 | 0.0 | 0.00 | 0.59 | 0.03 | 74 | 1041.8 |
| 20260831190314 | 79 | 67 | 0.0 | 0.0 | 0.00 | 0.59 | 0.03 | 73 | 1041.7 |
| 20260831184314 | 80 | 67 | 0.0 | 0.0 | 0.00 | 0.59 | 0.03 | 71 | 1042.0 |
| 20260831183314 | 80 | 67 | 0.0 | 0.0 | 0.00 | 0.59 | 0.03 | 69 | 1042.1 |
| 20260831182313 | 80 | 67 | 0.0 | 0.0 | 0.00 | 0.59 | 0.03 | 69 | 1041.9 |
| 20260831182213 | 80 | 67 | 0.0 | 0.0 | 0.00 | 0.59 | 0.03 | 69 | 1041.9 |
| 20260831181214 | 80 | 67 | 0.0 | 0.0 | 0.00 | 0.59 | 0.03 | 72 | 1042.1 |
| 20260831180215 | 80 | 67 | 0.0 | 0.0 | 0.00 | 0.59 | 0.03 | 70 | 1042.0 |
| 20260831175213 | 81 | 67 | 0.0 | 0.0 | 0.00 | 0.59 | 0.03 | 69 | 1042.2 |
| 20260831175115 | 81 | 67 | 0.0 | 0.0 | 0.00 | 0.59 | 0.03 | 68 | 1042.3 |
| 20260831174117 | 81 | 67 | 0.0 | 0.0 | 0.00 | 0.59 | 0.03 | 63 | 1042.1 |
| 20260831173214 | 82 | 67 | 0.0 | 0.0 | 0.00 | 0.59 | 0.03 | 60 | 1042.1 |
| 20260831173112 | 82 | 67 | 0.0 | 0.0 | 0.00 | 0.59 | 0.03 | 60 | 1042.1 |
| 20260831173014 | 82 | 67 | 0.0 | 0.0 | 0.00 | 0.59 | 0.03 | 60 | 1042.2 |
| 20260831171112 | 81 | 138 | 0.0 | 0.0 | 0.00 | 0.59 | 0.03 | 63 | 1042.1 |
| 20260831170113 | 80 | 157 | 0.0 | 0.0 | 0.00 | 0.59 | 0.03 | 66 | 1042.1 |
| 20260831165113 | 80 | 157 | 0.0 | 0.0 | 0.00 | 0.59 | 0.03 | 64 | 1042.3 |
| 20260831164016 | 80 | 157 | 0.0 | 0.0 | 0.00 | 0.59 | 0.03 | 65 | 1042.4 |
| 20260831163013 | 79 | 202 | 0.0 | 0.0 | 0.00 | 0.59 | 0.03 | 69 | 1042.2 |
| 20260831162013 | 78 | 315 | 0.0 | 0.0 | 0.01 | 0.59 | 0.03 | 74 | 1042.4 |
| 20260831161014 | 77 | 360 | 0.0 | 0.0 | 0.01 | 0.59 | 0.03 | 76 | 1042.5 |
| 20260831160012 | 75 | 270 | 0.0 | 0.0 | 0.01 | 0.59 | 0.03 | 79 | 1042.5 |
| 20260831155015 | 74 | 270 | 0.0 | 0.0 | 0.01 | 0.59 | 0.03 | 83 | 1042.5 |
| 20260831154916 | 74 | 270 | 0.0 | 0.0 | 0.01 | 0.59 | 0.03 | 84 | 1042.5 |
| 20260831153015 | 73 | 270 | 0.0 | 0.0 | 0.01 | 0.59 | 0.03 | 92 | 1042.6 |
| 20260831152030 | 72 | 270 | 0.0 | 0.0 | 0.00 | 0.57 | 0.02 | 91 | 1042.6 |
| 20260831151115 | 72 | 225 | 0.0 | 0.0 | 0.00 | 0.57 | 0.02 | 91 | 1042.7 |
| 20260831145312 | 71 | 225 | 0.0 | 0.0 | 0.00 | 0.57 | 0.02 | 94 | 1042.8 |
| 20260831144312 | 71 | 225 | 0.0 | 0.0 | 0.00 | 0.57 | 0.02 | 95 | 1043.0 |
| 20260831143313 | 71 | 225 | 0.0 | 0.0 | 0.00 | 0.57 | 0.02 | 95 | 1043.0 |
| 20260831142313 | 71 | 225 | 0.0 | 0.0 | 0.00 | 0.57 | 0.02 | 94 | 1042.8 |
| 20260831140315 | 71 | 225 | 0.0 | 0.0 | 0.00 | 0.57 | 0.02 | 94 | 1042.8 |
| 20260831135412 | 70 | 157 | 0.0 | 0.0 | 0.00 | 0.57 | 0.02 | 95 | 1042.7 |
| 20260831135315 | 70 | 157 | 0.0 | 0.0 | 0.00 | 0.57 | 0.02 | 94 | 1042.6 |
| 20260831133316 | 70 | 157 | 0.0 | 0.0 | 0.00 | 0.57 | 0.02 | 95 | 1042.9 |
| 20260831132414 | 70 | 157 | 0.0 | 0.0 | 0.00 | 0.57 | 0.02 | 95 | 1042.8 |
| 20260831131514 | 70 | 157 | 0.0 | 0.0 | 0.00 | 0.57 | 0.02 | 94 | 1042.6 |
| 20260831130516 | 70 | 157 | 0.0 | 0.0 | 0.00 | 0.57 | 0.02 | 96 | 1042.9 |
| 20260831125614 | 70 | 135 | 0.0 | 0.0 | 0.00 | 0.57 | 0.02 | 96 | 1042.8 |
| 20260831124613 | 69 | 135 | 0.0 | 0.0 | 0.00 | 0.57 | 0.02 | 96 | 1042.9 |
| 20260831124517 | 69 | 135 | 0.0 | 0.0 | 0.00 | 0.57 | 0.02 | 96 | 1042.9 |
| 20260831123515 | 69 | 135 | 0.0 | 0.0 | 0.00 | 0.57 | 0.02 | 96 | 1042.8 |
| 20260831122515 | 69 | 135 | 0.0 | 0.0 | 0.00 | 0.57 | 0.02 | 95 | 1042.8 |
| 20260831122416 | 69 | 135 | 0.0 | 0.0 | 0.00 | 0.57 | 0.02 | 96 | 1042.7 |
| 20260831121513 | 68 | 135 | 0.0 | 0.0 | 0.00 | 0.57 | 0.02 | 96 | 1042.5 |
| 20260831120514 | 68 | 135 | 0.0 | 0.0 | 0.00 | 0.57 | 0.02 | 96 | 1042.5 |
| 20260831115514 | 67 | 135 | 0.0 | 0.0 | 0.00 | 0.57 | 0.02 | 96 | 1042.6 |
| 20260831114415 | 67 | 135 | 0.0 | 0.0 | 0.00 | 0.57 | 0.02 | 96 | 1042.4 |
| 20260831113414 | 67 | 135 | 0.0 | 0.0 | 0.00 | 0.57 | 0.02 | 96 | 1042.3 |
| 20260831112425 | 67 | 135 | 0.0 | 0.0 | 0.00 | 0.57 | 0.02 | 96 | 1042.3 |
| 20260831111413 | 67 | 135 | 0.0 | 0.0 | 0.00 | 0.57 | 0.02 | 96 | 1042.2 |
| 20260831110415 | 67 | 135 | 0.0 | 0.0 | 0.00 | 0.57 | 0.02 | 95 | 1042.0 |
| 20260831110314 | 67 | 135 | 0.0 | 0.0 | 0.00 | 0.57 | 0.02 | 96 | 1042.0 |
| 20260831110215 | 67 | 135 | 0.0 | 0.0 | 0.00 | 0.57 | 0.02 | 96 | 1041.9 |
| 20260831105215 | 67 | 135 | 0.0 | 0.0 | 0.00 | 0.57 | 0.02 | 96 | 1042.0 |
| 20260831104313 | 67 | 135 | 0.0 | 0.0 | 0.00 | 0.57 | 0.02 | 95 | 1042.2 |
| 20260831104214 | 67 | 135 | 0.0 | 0.0 | 0.00 | 0.57 | 0.02 | 96 | 1042.2 |
| 20260831103114 | 67 | 135 | 0.0 | 0.0 | 0.00 | 0.57 | 0.02 | 96 | 1041.9 |
| 20260831101214 | 67 | 135 | 0.0 | 0.0 | 0.00 | 0.57 | 0.02 | 96 | 1041.9 |
| 20260831100312 | 67 | 135 | 0.0 | 0.0 | 0.00 | 0.57 | 0.02 | 96 | 1041.7 |
| 20260831100216 | 67 | 135 | 0.0 | 0.0 | 0.00 | 0.57 | 0.02 | 96 | 1041.7 |
| 20260831100115 | 67 | 135 | 0.0 | 0.0 | 0.00 | 0.57 | 0.02 | 96 | 1041.6 |
| 20260831094312 | 67 | 135 | 0.0 | 0.0 | 0.00 | 0.57 | 0.02 | 96 | 1041.4 |
| 20260831093315 | 67 | 135 | 0.0 | 0.0 | 0.00 | 0.57 | 0.02 | 96 | 1041.3 |
| 20260831092315 | 68 | 135 | 0.0 | 0.0 | 0.00 | 0.57 | 0.02 | 96 | 1041.2 |
| 20260831091314 | 68 | 135 | 0.0 | 0.0 | 0.00 | 0.57 | 0.02 | 96 | 1041.2 |
| 20260831090313 | 68 | 135 | 0.0 | 0.0 | 0.00 | 0.57 | 0.02 | 95 | 1041.4 |
| 20260831085316 | 68 | 135 | 0.0 | 0.0 | 0.00 | 0.57 | 0.02 | 95 | 1041.4 |
| 20260831084412 | 68 | 135 | 0.0 | 0.0 | 0.00 | 0.57 | 0.02 | 95 | 1041.2 |
| 20260831083430 | 68 | 135 | 0.0 | 0.0 | 0.00 | 0.57 | 0.02 | 95 | 1041.3 |
| 20260831082515 | 69 | 135 | 0.0 | 0.0 | 0.00 | 0.57 | 0.02 | 95 | 1041.5 |
| 20260831081614 | 69 | 135 | 0.0 | 0.0 | 0.00 | 0.57 | 0.02 | 95 | 1041.4 |
| 20260831080614 | 69 | 135 | 0.0 | 0.0 | 0.00 | 0.57 | 0.02 | 95 | 1041.5 |
| 20260831075616 | 69 | 135 | 0.0 | 0.0 | 0.00 | 0.57 | 0.02 | 94 | 1041.4 |
| 20260831074612 | 69 | 135 | 0.0 | 0.0 | 0.00 | 0.57 | 0.02 | 95 | 1041.3 |
| 20260831072615 | 69 | 135 | 0.0 | 0.0 | 0.00 | 0.57 | 0.02 | 95 | 1041.2 |
| 20260831064613 | 69 | 135 | 0.0 | 0.0 | 0.00 | 0.57 | 0.02 | 95 | 1041.4 |
| 20260831063613 | 70 | 135 | 0.0 | 0.0 | 0.00 | 0.57 | 0.02 | 95 | 1041.4 |
| 20260831062614 | 69 | 135 | 0.0 | 0.0 | 0.00 | 0.57 | 0.02 | 95 | 1041.3 |
| 20260831061613 | 69 | 135 | 0.0 | 0.0 | 0.00 | 0.57 | 0.02 | 94 | 1041.3 |
| 20260831060614 | 70 | 135 | 0.0 | 0.0 | 0.00 | 0.57 | 0.02 | 95 | 1041.2 |
| 20260831060515 | 70 | 135 | 0.0 | 0.0 | 0.00 | 0.57 | 0.02 | 95 | 1041.2 |
| 20260831060414 | 70 | 135 | 0.0 | 0.0 | 0.00 | 0.57 | 0.02 | 95 | 1041.1 |
| 20260831055512 | 70 | 135 | 0.0 | 0.0 | 0.00 | 0.57 | 0.02 | 95 | 1041.1 |
| 20260831054514 | 70 | 135 | 0.0 | 0.0 | 0.00 | 0.57 | 0.02 | 94 | 1041.2 |
| 20260831054413 | 70 | 135 | 0.0 | 0.0 | 0.00 | 0.57 | 0.02 | 95 | 1041.2 |
| 20260831053415 | 70 | 135 | 0.0 | 0.0 | 0.00 | 0.57 | 0.02 | 95 | 1041.1 |
| 20260831052416 | 70 | 135 | 0.0 | 0.0 | 0.00 | 0.57 | 0.02 | 94 | 1041.3 |
| 20260831050514 | 70 | 135 | 0.0 | 0.0 | 0.02 | 0.57 | 0.02 | 94 | 1041.3 |
| 20260831045413 | 70 | 135 | 0.0 | 0.0 | 0.02 | 0.57 | 0.02 | 94 | 1041.2 |
| 20260831044413 | 70 | 135 | 0.0 | 0.0 | 0.02 | 0.57 | 0.02 | 94 | 1041.4 |
| 20260831042416 | 70 | 135 | 0.0 | 0.0 | 0.02 | 0.57 | 0.02 | 94 | 1041.7 |
| 20260831042314 | 70 | 135 | 0.0 | 0.0 | 0.02 | 0.57 | 0.02 | 93 | 1041.7 |
| 20260831041315 | 70 | 135 | 0.0 | 0.0 | 0.01 | 0.57 | 0.01 | 94 | 1041.7 |
| 20260831040414 | 70 | 135 | 0.0 | 0.0 | 0.01 | 0.56 | 0.00 | 93 | 1041.6 |
| 20260831040314 | 70 | 135 | 0.0 | 0.0 | 0.01 | 0.56 | 0.00 | 93 | 1041.6 |
| 20260831035317 | 70 | 135 | 0.0 | 0.0 | 0.01 | 0.56 | 0.56 | 93 | 1041.7 |
| 20260831034318 | 70 | 135 | 0.0 | 0.0 | 0.02 | 0.56 | 0.56 | 93 | 1041.8 |
| 20260831033317 | 70 | 135 | 0.0 | 0.0 | 0.31 | 0.56 | 0.56 | 92 | 1041.6 |
| 20260831030218 | 70 | 135 | 0.0 | 0.0 | 0.55 | 0.55 | 0.55 | 91 | 1041.4 |
| 20260831025216 | 71 | 135 | 0.0 | 0.0 | 0.55 | 0.55 | 0.55 | 89 | 1041.3 |
| 20260831024218 | 72 | 135 | 0.0 | 1.0 | 0.53 | 0.53 | 0.52 | 89 | 1041.8 |
| 20260831024119 | 72 | 129 | 0.0 | 0.0 | 0.52 | 0.52 | 0.48 | 90 | 1042.0 |
| 20260831023117 | 74 | 207 | 1.0 | 5.0 | 0.20 | 0.20 | 0.18 | 90 | 1041.5 |
| 20260831022117 | 74 | 182 | 0.0 | 2.0 | 0.01 | 0.01 | 0.01 | 87 | 1041.4 |
| 20260831022017 | 74 | 202 | 0.0 | 1.0 | 0.01 | 0.01 | 0.01 | 87 | 1041.4 |
| 20260831021015 | 74 | 202 | 0.0 | 0.0 | 0.00 | 0.00 | 0.00 | 86 | 1041.3 |
| 20260831020017 | 74 | 202 | 0.0 | 0.0 | 0.00 | 0.00 | 0.00 | 86 | 1041.1 |
| 20260831015017 | 74 | 202 | 0.0 | 0.0 | 0.00 | 0.00 | 0.00 | 86 | 1041.2 |
| 20260831014016 | 74 | 202 | 0.0 | 0.0 | 0.00 | 0.00 | 0.00 | 86 | 1041.3 |
| 20260831011016 | 74 | 202 | 0.0 | 0.0 | 0.00 | 0.00 | 0.00 | 84 | 1041.1 |
| 20260831010017 | 74 | 202 | 0.0 | 0.0 | 0.00 | 0.00 | 0.00 | 85 | 1041.2 |
| 20260831005916 | 74 | 202 | 0.0 | 0.0 | 0.00 | 0.00 | 0.00 | 85 | 1041.1 |
| 20260831004917 | 74 | 202 | 0.0 | 0.0 | 0.00 | 0.00 | 0.00 | 85 | 1041.1 |
| 20260831004016 | 74 | 202 | 0.0 | 0.0 | 0.00 | 0.00 | 0.00 | 85 | 1041.1 |
| 20260831002018 | 75 | 202 | 0.0 | 0.0 | 0.00 | 0.00 | 0.00 | 83 | 1040.8 |
| 20260831000018 | 75 | 202 | 0.0 | 0.0 | 0.00 | 0.00 | 0.00 | 81 | 1040.5 |
| 20260830235015 | 75 | 202 | 0.0 | 0.0 | 0.00 | 0.00 | 0.00 | 79 | 1040.6 |
| 20260830234916 | 75 | 202 | 0.0 | 0.0 | 0.00 | 0.00 | 0.00 | 79 | 1040.7 |
| 20260830233917 | 76 | 202 | 0.0 | 0.0 | 0.00 | 0.00 | 0.00 | 79 | 1040.7 |
| 20260830232915 | 76 | 202 | 0.0 | 0.0 | 0.00 | 0.00 | 0.00 | 79 | 1040.7 |
| 20260830231917 | 77 | 202 | 0.0 | 0.0 | 0.00 | 0.00 | 0.00 | 78 | 1040.8 |
| 20260830230918 | 77 | 202 | 0.0 | 0.0 | 0.00 | 0.00 | 0.00 | 78 | 1040.9 |
| 20260830230817 | 77 | 202 | 0.0 | 0.0 | 0.00 | 0.00 | 0.00 | 78 | 1040.9 |